Location: D�rnast
(49.6426°N, 11.9755°E)
Time: 02:50:57
(UTC+00:00)

Cosmos 1680 Rocket - Pass Details

Date: 24 January 2021
Orbit: 760 x 780 km, 74.1° (Epoch: 24 February)

Event Time Altitude Azimuth Distance (km) Brightness Sun altitude
Rises 17:33:08 0° 335° (NNW) 3,250 6.9 -15.8°
Reaches altitude 10° 17:35:31 10° 334° (NNW) 2,316 6.2 -16.2°
Maximum altitude 17:40:46 76° 250° (WSW) 791 3.7 -17.0°
Drops below altitude 10° 17:45:57 10° 165° (SSE) 2,290 5.9 -17.8°
Sets 17:48:18 0° 164° (SSE) 3,210 6.6 -18.2°
